| time (UTC) | temp F | wind direction | speed MPH | gust MPH | rain 1hr in | rain 24hr in | rain mn in | humidity % | barometer mb |
| 20260509181046 | 74 | 136 | 1.0 | 5.0 | 0.00 | 0.00 | 0.00 | 37 | 1019.2 |
| 20260509180545 | 74 | 175 | 1.0 | 5.0 | 0.00 | 0.00 | 0.00 | 38 | 1019.2 |
| 20260509180111 | 74 | 175 | 2.0 | 5.0 | 0.00 | 0.00 | 0.00 | 35 | 1019.2 |
| 20260509175548 | 74 | 196 | 2.0 | 5.0 | 0.00 | 0.00 | 0.00 | 35 | 1019.2 |
| 20260509175048 | 74 | 0 | 1.0 | 4.0 | 0.00 | 0.00 | 0.00 | 35 | 1019.2 |
| 20260509174553 | 73 | 180 | 0.0 | 4.0 | 0.00 | 0.00 | 0.00 | 39 | 1019.2 |
| 20260509174045 | 73 | 0 | 1.0 | 4.0 | 0.00 | 0.00 | 0.00 | 38 | 1019.2 |
| 20260509173547 | 73 | 0 | 1.0 | 4.0 | 0.00 | 0.00 | 0.00 | 39 | 1019.1 |
| 20260509173051 | 73 | 213 | 0.0 | 4.0 | 0.00 | 0.00 | 0.00 | 36 | 1019.2 |
| 20260509172550 | 73 | 233 | 0.0 | 4.0 | 0.00 | 0.00 | 0.00 | 36 | 1019.2 |
| 20260509172046 | 72 | 0 | 0.0 | 2.0 | 0.00 | 0.00 | 0.00 | 37 | 1019.1 |
| 20260509171556 | 72 | 190 | 0.0 | 2.0 | 0.00 | 0.00 | 0.00 | 39 | 1019.2 |
| 20260509171047 | 72 | 0 | 0.0 | 2.0 | 0.00 | 0.00 | 0.00 | 38 | 1019.1 |
| 20260509170546 | 71 | 161 | 0.0 | 6.0 | 0.00 | 0.00 | 0.00 | 40 | 1019.1 |
| 20260509170059 | 71 | 0 | 1.0 | 6.0 | 0.00 | 0.00 | 0.00 | 40 | 1019.1 |
| 20260509165547 | 70 | 213 | 0.0 | 2.0 | 0.00 | 0.00 | 0.00 | 42 | 1019.0 |
| 20260509165044 | 69 | 0 | 0.0 | 2.0 | 0.00 | 0.00 | 0.00 | 44 | 1019.1 |
| 20260509164550 | 69 | 0 | 0.0 | 3.0 | 0.00 | 0.00 | 0.00 | 45 | 1019.1 |
| 20260509164048 | 68 | 55 | 1.0 | 3.0 | 0.00 | 0.00 | 0.00 | 48 | 1019.1 |
| 20260509163548 | 68 | 63 | 1.0 | 3.0 | 0.00 | 0.00 | 0.00 | 49 | 1019.1 |
| 20260509163110 | 67 | 0 | 0.0 | 3.0 | 0.00 | 0.00 | 0.00 | 49 | 1019.0 |
| 20260509162547 | 66 | 49 | 0.0 | 3.0 | 0.00 | 0.00 | 0.00 | 51 | 1019.0 |
| 20260509162047 | 65 | 0 | 0.0 | 2.0 | 0.00 | 0.00 | 0.00 | 48 | 1019.0 |
| 20260509161552 | 64 | 0 | 0.0 | 1.0 | 0.00 | 0.00 | 0.00 | 54 | 1019.0 |
| 20260509161046 | 63 | 0 | 0.0 | 2.0 | 0.00 | 0.00 | 0.00 | 53 | 1018.9 |
| 20260509160548 | 62 | 40 | 0.0 | 3.0 | 0.00 | 0.00 | 0.00 | 56 | 1018.9 |
| 20260509160052 | 61 | 40 | 0.0 | 3.0 | 0.00 | 0.00 | 0.00 | 55 | 1018.9 |
| 20260509155548 | 60 | 0 | 1.0 | 3.0 | 0.00 | 0.00 | 0.00 | 55 | 1018.8 |
| 20260509155047 | 59 | 0 | 0.0 | 2.0 | 0.00 | 0.00 | 0.00 | 56 | 1018.8 |
| 20260509154551 | 58 | 40 | 0.0 | 2.0 | 0.00 | 0.00 | 0.00 | 54 | 1018.8 |
| 20260509154048 | 57 | 0 | 0.0 | 2.0 | 0.00 | 0.00 | 0.00 | 56 | 1018.8 |
| 20260509153544 | 56 | 40 | 1.0 | 2.0 | 0.00 | 0.00 | 0.00 | 56 | 1018.8 |
| 20260509153055 | 55 | 49 | 0.0 | 2.0 | 0.00 | 0.00 | 0.00 | 56 | 1018.8 |
| 20260509152548 | 55 | 57 | 0.0 | 2.0 | 0.00 | 0.00 | 0.00 | 58 | 1018.8 |
| 20260509152047 | 54 | 57 | 0.0 | 2.0 | 0.00 | 0.00 | 0.00 | 56 | 1018.8 |
| 20260509151558 | 54 | 0 | 0.0 | 2.0 | 0.00 | 0.00 | 0.00 | 57 | 1018.8 |
| 20260509151044 | 53 | 0 | 1.0 | 3.0 | 0.00 | 0.00 | 0.00 | 56 | 1018.8 |
| 20260509150548 | 52 | 56 | 1.0 | 3.0 | 0.00 | 0.00 | 0.00 | 55 | 1018.8 |
| 20260509150055 | 52 | 50 | 1.0 | 3.0 | 0.00 | 0.00 | 0.00 | 56 | 1018.8 |
| 20260509145548 | 51 | 33 | 0.0 | 2.0 | 0.00 | 0.00 | 0.00 | 57 | 1018.8 |
| 20260509145047 | 50 | 20 | 0.0 | 2.0 | 0.00 | 0.00 | 0.00 | 62 | 1018.8 |
| 20260509144557 | 50 | 0 | 0.0 | 1.0 | 0.00 | 0.00 | 0.00 | 69 | 1018.8 |
| 20260509144048 | 50 | 0 | 0.0 | 0.0 | 0.00 | 0.00 | 0.00 | 69 | 1018.8 |
| 20260509143548 | 49 | 0 | 0.0 | 0.0 | 0.00 | 0.00 | 0.00 | 73 | 1018.8 |
| 20260509143055 | 49 | 0 | 0.0 | 1.0 | 0.00 | 0.00 | 0.00 | 74 | 1018.7 |
| 20260509142544 | 49 | 0 | 0.0 | 1.0 | 0.00 | 0.00 | 0.00 | 75 | 1018.7 |
| 20260509142047 | 49 | 0 | 0.0 | 1.0 | 0.00 | 0.00 | 0.00 | 74 | 1018.7 |
| 20260509141602 | 48 | 20 | 0.0 | 1.0 | 0.00 | 0.00 | 0.00 | 74 | 1018.6 |
| 20260509141050 | 48 | 0 | 0.0 | 1.0 | 0.00 | 0.00 | 0.00 | 74 | 1018.6 |
| 20260509140548 | 48 | 0 | 0.0 | 0.0 | 0.00 | 0.00 | 0.00 | 71 | 1018.5 |
| 20260509135548 | 48 | 0 | 0.0 | 0.0 | 0.00 | 0.00 | 0.00 | 70 | 1018.5 |
| 20260509135048 | 47 | 0 | 0.0 | 0.0 | 0.00 | 0.00 | 0.00 | 69 | 1018.5 |
| 20260509134551 | 47 | 0 | 0.0 | 0.0 | 0.00 | 0.00 | 0.00 | 67 | 1018.5 |
| 20260509134047 | 47 | 0 | 0.0 | 0.0 | 0.00 | 0.00 | 0.00 | 67 | 1018.5 |
| 20260509133550 | 47 | 0 | 0.0 | 0.0 | 0.00 | 0.00 | 0.00 | 62 | 1018.4 |
| 20260509133053 | 47 | 0 | 0.0 | 0.0 | 0.00 | 0.00 | 0.00 | 65 | 1018.4 |
| 20260509132545 | 47 | 0 | 0.0 | 0.0 | 0.00 | 0.00 | 0.00 | 64 | 1018.3 |
| 20260509132044 | 47 | 0 | 0.0 | 0.0 | 0.00 | 0.00 | 0.00 | 65 | 1018.3 |
| 20260509131551 | 47 | 0 | 0.0 | 0.0 | 0.00 | 0.00 | 0.00 | 64 | 1018.2 |
| 20260509131048 | 47 | 0 | 0.0 | 0.0 | 0.00 | 0.00 | 0.00 | 64 | 1018.2 |
| 20260509130549 | 47 | 0 | 0.0 | 0.0 | 0.00 | 0.00 | 0.00 | 65 | 1018.2 |
| 20260509130054 | 47 | 0 | 0.0 | 0.0 | 0.00 | 0.00 | 0.00 | 62 | 1018.2 |
| 20260509125546 | 47 | 0 | 0.0 | 0.0 | 0.00 | 0.00 | 0.00 | 61 | 1018.2 |
| 20260509125048 | 47 | 0 | 0.0 | 0.0 | 0.00 | 0.00 | 0.00 | 62 | 1018.2 |
| 20260509124558 | 47 | 0 | 0.0 | 0.0 | 0.00 | 0.00 | 0.00 | 61 | 1018.2 |
| 20260509124047 | 47 | 0 | 0.0 | 0.0 | 0.00 | 0.00 | 0.00 | 59 | 1018.2 |
| 20260509123547 | 47 | 0 | 0.0 | 0.0 | 0.00 | 0.00 | 0.00 | 61 | 1018.0 |
| 20260509123057 | 47 | 0 | 0.0 | 0.0 | 0.00 | 0.00 | 0.00 | 62 | 1018.0 |
| 20260509122546 | 48 | 0 | 0.0 | 0.0 | 0.00 | 0.00 | 0.00 | 62 | 1017.9 |
| 20260509122047 | 48 | 0 | 0.0 | 0.0 | 0.00 | 0.00 | 0.00 | 61 | 1017.9 |
| 20260509121551 | 48 | 0 | 0.0 | 0.0 | 0.00 | 0.00 | 0.00 | 60 | 1017.9 |
| 20260509121050 | 48 | 0 | 0.0 | 0.0 | 0.00 | 0.00 | 0.00 | 59 | 1017.9 |
| 20260509120548 | 48 | 0 | 0.0 | 0.0 | 0.00 | 0.00 | 0.00 | 57 | 1018.0 |
| 20260509120056 | 48 | 0 | 0.0 | 0.0 | 0.00 | 0.00 | 0.00 | 55 | 1017.9 |
| 20260509115548 | 48 | 0 | 0.0 | 0.0 | 0.00 | 0.00 | 0.00 | 55 | 1017.9 |
| 20260509115047 | 48 | 0 | 0.0 | 0.0 | 0.00 | 0.00 | 0.00 | 53 | 1018.0 |
| 20260509114605 | 48 | 0 | 0.0 | 0.0 | 0.00 | 0.00 | 0.00 | 52 | 1018.0 |
| 20260509114047 | 48 | 0 | 0.0 | 0.0 | 0.00 | 0.00 | 0.00 | 53 | 1018.0 |
| 20260509113548 | 48 | 0 | 0.0 | 0.0 | 0.00 | 0.00 | 0.00 | 56 | 1018.0 |
| 20260509113113 | 48 | 0 | 0.0 | 0.0 | 0.00 | 0.00 | 0.00 | 57 | 1018.1 |
| 20260509112546 | 48 | 0 | 0.0 | 0.0 | 0.00 | 0.00 | 0.00 | 58 | 1018.1 |
| 20260509112048 | 48 | 0 | 0.0 | 0.0 | 0.00 | 0.00 | 0.00 | 55 | 1018.0 |
| 20260509111555 | 48 | 0 | 0.0 | 0.0 | 0.00 | 0.00 | 0.00 | 57 | 1018.0 |
| 20260509111047 | 48 | 0 | 0.0 | 0.0 | 0.00 | 0.00 | 0.00 | 57 | 1018.0 |
| 20260509110548 | 48 | 0 | 0.0 | 0.0 | 0.00 | 0.00 | 0.00 | 57 | 1018.1 |
| 20260509110053 | 48 | 0 | 0.0 | 0.0 | 0.00 | 0.00 | 0.00 | 58 | 1018.2 |
| 20260509105547 | 48 | 0 | 0.0 | 0.0 | 0.00 | 0.00 | 0.00 | 59 | 1018.2 |
| 20260509105047 | 48 | 0 | 0.0 | 0.0 | 0.00 | 0.00 | 0.00 | 58 | 1018.2 |
| 20260509104558 | 48 | 0 | 0.0 | 0.0 | 0.00 | 0.00 | 0.00 | 58 | 1018.3 |
| 20260509104049 | 48 | 0 | 0.0 | 0.0 | 0.00 | 0.00 | 0.00 | 58 | 1018.3 |
| 20260509103548 | 48 | 0 | 0.0 | 0.0 | 0.00 | 0.00 | 0.00 | 62 | 1018.3 |
| 20260509103059 | 48 | 0 | 0.0 | 0.0 | 0.00 | 0.00 | 0.00 | 60 | 1018.3 |
| 20260509102547 | 48 | 0 | 0.0 | 0.0 | 0.00 | 0.00 | 0.00 | 58 | 1018.4 |
| 20260509102047 | 48 | 0 | 0.0 | 0.0 | 0.00 | 0.00 | 0.00 | 59 | 1018.4 |
| 20260509101553 | 48 | 0 | 0.0 | 0.0 | 0.00 | 0.00 | 0.00 | 58 | 1018.4 |
| 20260509101046 | 48 | 0 | 0.0 | 0.0 | 0.00 | 0.00 | 0.00 | 58 | 1018.4 |
| 20260509100546 | 48 | 0 | 0.0 | 0.0 | 0.00 | 0.00 | 0.00 | 58 | 1018.4 |
| 20260509100109 | 48 | 0 | 0.0 | 0.0 | 0.00 | 0.00 | 0.00 | 58 | 1018.3 |
| 20260509095547 | 48 | 0 | 0.0 | 0.0 | 0.00 | 0.00 | 0.00 | 57 | 1018.4 |
| 20260509095049 | 48 | 0 | 0.0 | 0.0 | 0.00 | 0.00 | 0.00 | 57 | 1018.4 |
| 20260509094555 | 48 | 0 | 0.0 | 0.0 | 0.00 | 0.00 | 0.00 | 59 | 1018.4 |
| 20260509094047 | 48 | 0 | 0.0 | 0.0 | 0.00 | 0.00 | 0.00 | 61 | 1018.5 |
| 20260509093547 | 48 | 0 | 0.0 | 0.0 | 0.00 | 0.00 | 0.00 | 61 | 1018.5 |
| 20260509093108 | 48 | 0 | 0.0 | 0.0 | 0.00 | 0.00 | 0.00 | 60 | 1018.5 |
| 20260509092552 | 48 | 0 | 0.0 | 0.0 | 0.00 | 0.00 | 0.00 | 67 | 1018.5 |
| 20260509092048 | 49 | 0 | 0.0 | 0.0 | 0.00 | 0.00 | 0.00 | 69 | 1018.5 |
| 20260509091606 | 49 | 0 | 0.0 | 0.0 | 0.00 | 0.00 | 0.00 | 68 | 1018.5 |
| 20260509091048 | 49 | 0 | 0.0 | 0.0 | 0.00 | 0.00 | 0.00 | 67 | 1018.5 |
| 20260509090547 | 49 | 0 | 0.0 | 0.0 | 0.00 | 0.00 | 0.00 | 69 | 1018.7 |
| 20260509090053 | 49 | 0 | 0.0 | 0.0 | 0.00 | 0.00 | 0.00 | 66 | 1018.7 |
| 20260509085542 | 49 | 0 | 0.0 | 0.0 | 0.00 | 0.00 | 0.00 | 65 | 1018.7 |
| 20260509085051 | 49 | 0 | 0.0 | 0.0 | 0.00 | 0.00 | 0.00 | 64 | 1018.8 |
| 20260509084552 | 49 | 0 | 0.0 | 0.0 | 0.00 | 0.00 | 0.00 | 65 | 1018.9 |
| 20260509084047 | 49 | 0 | 0.0 | 0.0 | 0.00 | 0.00 | 0.00 | 65 | 1019.0 |
| 20260509083546 | 49 | 0 | 0.0 | 0.0 | 0.00 | 0.00 | 0.00 | 65 | 1019.0 |
| 20260509083050 | 49 | 0 | 0.0 | 0.0 | 0.00 | 0.00 | 0.00 | 67 | 1018.9 |
| 20260509082547 | 49 | 0 | 0.0 | 0.0 | 0.00 | 0.00 | 0.00 | 65 | 1018.9 |
| 20260509082047 | 49 | 0 | 0.0 | 0.0 | 0.00 | 0.00 | 0.00 | 68 | 1018.9 |
| 20260509081601 | 49 | 0 | 0.0 | 0.0 | 0.00 | 0.00 | 0.00 | 67 | 1018.9 |
| 20260509081048 | 49 | 0 | 0.0 | 0.0 | 0.00 | 0.00 | 0.00 | 68 | 1019.0 |
| 20260509080547 | 50 | 0 | 0.0 | 0.0 | 0.00 | 0.00 | 0.00 | 67 | 1019.1 |
| 20260509080058 | 50 | 0 | 0.0 | 0.0 | 0.00 | 0.00 | 0.00 | 66 | 1019.2 |
| 20260509075548 | 50 | 0 | 0.0 | 0.0 | 0.00 | 0.00 | 0.00 | 65 | 1019.1 |
| 20260509075048 | 50 | 0 | 0.0 | 0.0 | 0.00 | 0.00 | 0.00 | 68 | 1019.3 |
| 20260509074556 | 50 | 0 | 0.0 | 0.0 | 0.00 | 0.00 | 0.00 | 69 | 1019.4 |
| 20260509074046 | 50 | 0 | 0.0 | 0.0 | 0.00 | 0.00 | 0.00 | 70 | 1019.4 |
| 20260509073550 | 50 | 0 | 0.0 | 0.0 | 0.00 | 0.00 | 0.00 | 70 | 1019.4 |
| 20260509073104 | 50 | 0 | 0.0 | 0.0 | 0.00 | 0.00 | 0.00 | 68 | 1019.4 |
| 20260509072549 | 50 | 0 | 0.0 | 0.0 | 0.00 | 0.00 | 0.00 | 68 | 1019.5 |
| 20260509072047 | 50 | 0 | 0.0 | 0.0 | 0.00 | 0.00 | 0.00 | 66 | 1019.5 |
| 20260509071553 | 50 | 0 | 0.0 | 0.0 | 0.00 | 0.00 | 0.00 | 65 | 1019.5 |
| 20260509071048 | 51 | 0 | 0.0 | 0.0 | 0.00 | 0.00 | 0.00 | 66 | 1019.6 |
| 20260509070547 | 51 | 0 | 0.0 | 0.0 | 0.00 | 0.00 | 0.00 | 67 | 1019.6 |
| 20260509065544 | 51 | 0 | 0.0 | 0.0 | 0.00 | 0.00 | 0.00 | 66 | 1019.6 |
| 20260509065044 | 51 | 0 | 0.0 | 0.0 | 0.00 | 0.00 | 0.00 | 67 | 1019.6 |
| 20260509064552 | 51 | 0 | 0.0 | 0.0 | 0.00 | 0.00 | 0.00 | 65 | 1019.6 |
| 20260509064047 | 51 | 0 | 0.0 | 0.0 | 0.00 | 0.00 | 0.00 | 66 | 1019.6 |
| 20260509063544 | 52 | 0 | 0.0 | 0.0 | 0.00 | 0.00 | 0.00 | 63 | 1019.7 |
| 20260509063056 | 52 | 0 | 0.0 | 1.0 | 0.00 | 0.00 | 0.00 | 65 | 1019.7 |
| 20260509062545 | 52 | 0 | 0.0 | 1.0 | 0.00 | 0.00 | 0.00 | 64 | 1019.7 |
| 20260509062045 | 52 | 0 | 0.0 | 1.0 | 0.00 | 0.00 | 0.00 | 65 | 1019.8 |
| 20260509061609 | 52 | 0 | 0.0 | 1.0 | 0.00 | 0.00 | 0.00 | 63 | 1019.9 |
| 20260509061048 | 52 | 20 | 0.0 | 1.0 | 0.00 | 0.00 | 0.00 | 63 | 1019.9 |
| 20260509060550 | 52 | 0 | 0.0 | 1.0 | 0.00 | 0.00 | 0.00 | 63 | 1019.9 |
| 20260509060056 | 53 | 0 | 0.0 | 1.0 | 0.00 | 0.00 | 0.00 | 62 | 1019.9 |
| 20260509055551 | 53 | 0 | 0.0 | 1.0 | 0.00 | 0.00 | 0.00 | 63 | 1020.0 |
| 20260509055047 | 53 | 0 | 0.0 | 1.0 | 0.00 | 0.00 | 0.00 | 59 | 1020.0 |
| 20260509054559 | 53 | 0 | 0.0 | 0.0 | 0.00 | 0.00 | 0.00 | 57 | 1020.0 |
| 20260509054050 | 53 | 0 | 0.0 | 0.0 | 0.00 | 0.00 | 0.00 | 56 | 1020.0 |
| 20260509053548 | 53 | 0 | 0.0 | 0.0 | 0.00 | 0.00 | 0.00 | 53 | 1020.0 |
| 20260509053101 | 53 | 0 | 0.0 | 0.0 | 0.00 | 0.00 | 0.00 | 52 | 1020.1 |
| 20260509052547 | 53 | 0 | 0.0 | 1.0 | 0.00 | 0.00 | 0.00 | 52 | 1020.0 |
| 20260509052050 | 53 | 0 | 0.0 | 1.0 | 0.00 | 0.00 | 0.00 | 52 | 1020.1 |
| 20260509051556 | 53 | 0 | 0.0 | 1.0 | 0.00 | 0.00 | 0.00 | 53 | 1020.0 |
| 20260509051049 | 53 | 20 | 0.0 | 1.0 | 0.00 | 0.00 | 0.00 | 54 | 1019.9 |
| 20260509050544 | 54 | 0 | 0.0 | 1.0 | 0.00 | 0.00 | 0.00 | 55 | 1019.9 |
| 20260509050056 | 54 | 0 | 0.0 | 2.0 | 0.00 | 0.00 | 0.00 | 56 | 1019.9 |
| 20260509045548 | 54 | 0 | 0.0 | 2.0 | 0.00 | 0.00 | 0.00 | 56 | 1019.8 |
| 20260509045044 | 54 | 20 | 0.0 | 2.0 | 0.00 | 0.00 | 0.00 | 54 | 1019.8 |
| 20260509044557 | 54 | 0 | 0.0 | 1.0 | 0.00 | 0.00 | 0.00 | 55 | 1019.8 |
| 20260509044045 | 54 | 0 | 0.0 | 1.0 | 0.00 | 0.00 | 0.00 | 54 | 1019.9 |
| 20260509043552 | 54 | 0 | 0.0 | 2.0 | 0.00 | 0.00 | 0.00 | 53 | 1019.8 |
| 20260509043059 | 54 | 12 | 0.0 | 2.0 | 0.00 | 0.00 | 0.00 | 53 | 1019.8 |
| 20260509042548 | 54 | 0 | 0.0 | 2.0 | 0.00 | 0.00 | 0.00 | 53 | 1019.7 |
| 20260509042048 | 54 | 12 | 0.0 | 2.0 | 0.00 | 0.00 | 0.00 | 54 | 1019.8 |
| 20260509041550 | 54 | 0 | 0.0 | 2.0 | 0.00 | 0.00 | 0.00 | 55 | 1019.7 |
| 20260509041044 | 54 | 5 | 0.0 | 2.0 | 0.00 | 0.00 | 0.00 | 57 | 1019.8 |
| 20260509040546 | 54 | 13 | 0.0 | 2.0 | 0.00 | 0.00 | 0.00 | 60 | 1019.7 |
| 20260509040058 | 55 | 0 | 1.0 | 3.0 | 0.00 | 0.00 | 0.00 | 66 | 1019.6 |
| 20260509035547 | 55 | 0 | 0.0 | 3.0 | 0.00 | 0.00 | 0.00 | 72 | 1019.6 |
| 20260509035045 | 55 | 0 | 0.0 | 2.0 | 0.00 | 0.00 | 0.00 | 77 | 1019.6 |
| 20260509034600 | 56 | 308 | 0.0 | 2.0 | 0.00 | 0.00 | 0.00 | 78 | 1019.6 |
| 20260509034046 | 56 | 0 | 0.0 | 2.0 | 0.00 | 0.00 | 0.00 | 78 | 1019.6 |
| 20260509033545 | 56 | 0 | 0.0 | 2.0 | 0.00 | 0.00 | 0.00 | 77 | 1019.6 |
| 20260509033050 | 56 | 0 | 0.0 | 1.0 | 0.00 | 0.00 | 0.00 | 77 | 1019.6 |
| 20260509032543 | 57 | 0 | 0.0 | 2.0 | 0.00 | 0.00 | 0.00 | 77 | 1019.5 |
| 20260509032048 | 57 | 0 | 0.0 | 2.0 | 0.00 | 0.00 | 0.00 | 75 | 1019.5 |
| 20260509031552 | 57 | 0 | 0.0 | 2.0 | 0.00 | 0.00 | 0.00 | 75 | 1019.4 |
| 20260509031048 | 58 | 0 | 0.0 | 3.0 | 0.00 | 0.00 | 0.00 | 75 | 1019.3 |
| 20260509030548 | 58 | 0 | 0.0 | 3.0 | 0.00 | 0.00 | 0.00 | 74 | 1019.4 |
| 20260509030052 | 59 | 0 | 0.0 | 2.0 | 0.00 | 0.00 | 0.00 | 73 | 1019.4 |
| 20260509025547 | 59 | 308 | 0.0 | 2.0 | 0.00 | 0.00 | 0.00 | 74 | 1019.3 |
| 20260509025050 | 60 | 308 | 0.0 | 2.0 | 0.00 | 0.00 | 0.00 | 74 | 1019.2 |
| 20260509024551 | 60 | 0 | 0.0 | 2.0 | 0.00 | 0.00 | 0.00 | 72 | 1019.3 |
| 20260509024047 | 60 | 308 | 0.0 | 2.0 | 0.00 | 0.00 | 0.00 | 70 | 1019.3 |
| 20260509023547 | 61 | 0 | 0.0 | 2.0 | 0.00 | 0.00 | 0.00 | 67 | 1019.3 |
| 20260509023052 | 61 | 0 | 0.0 | 0.0 | 0.00 | 0.00 | 0.00 | 67 | 1019.2 |
| 20260509022548 | 62 | 0 | 0.0 | 1.0 | 0.00 | 0.00 | 0.00 | 65 | 1019.1 |
| 20260509022047 | 62 | 0 | 0.0 | 1.0 | 0.00 | 0.00 | 0.00 | 64 | 1019.2 |
| 20260509021551 | 63 | 308 | 0.0 | 2.0 | 0.00 | 0.00 | 0.00 | 62 | 1019.1 |
| 20260509021045 | 64 | 0 | 0.0 | 2.0 | 0.00 | 0.00 | 0.00 | 60 | 1019.0 |
| 20260509020544 | 64 | 0 | 0.0 | 2.0 | 0.00 | 0.00 | 0.00 | 60 | 1019.0 |
| 20260509020053 | 65 | 0 | 0.0 | 3.0 | 0.00 | 0.00 | 0.00 | 58 | 1019.0 |
| 20260509015548 | 65 | 0 | 0.0 | 3.0 | 0.00 | 0.00 | 0.00 | 58 | 1019.0 |
| 20260509015048 | 66 | 308 | 0.0 | 3.0 | 0.00 | 0.00 | 0.00 | 56 | 1019.0 |
| 20260509014551 | 66 | 222 | 0.0 | 3.0 | 0.00 | 0.00 | 0.00 | 54 | 1019.0 |
| 20260509014048 | 67 | 0 | 0.0 | 3.0 | 0.00 | 0.00 | 0.00 | 53 | 1019.0 |
| 20260509013549 | 68 | 219 | 0.0 | 3.0 | 0.00 | 0.00 | 0.00 | 52 | 1019.0 |
| 20260509013049 | 68 | 273 | 0.0 | 3.0 | 0.00 | 0.00 | 0.00 | 50 | 1019.0 |
| 20260509012550 | 69 | 190 | 1.0 | 4.0 | 0.00 | 0.00 | 0.00 | 47 | 1019.0 |
| 20260509012050 | 69 | 0 | 1.0 | 5.0 | 0.00 | 0.00 | 0.00 | 43 | 1018.9 |
| 20260509011553 | 70 | 263 | 1.0 | 5.0 | 0.00 | 0.00 | 0.00 | 41 | 1019.1 |
| 20260509011047 | 70 | 174 | 2.0 | 5.0 | 0.00 | 0.00 | 0.00 | 41 | 1019.0 |
| 20260509010548 | 70 | 234 | 2.0 | 5.0 | 0.00 | 0.00 | 0.00 | 40 | 1019.0 |
| 20260509010050 | 71 | 0 | 1.0 | 10.0 | 0.00 | 0.00 | 0.00 | 42 | 1018.9 |
| 20260509005547 | 71 | 0 | 3.0 | 10.0 | 0.00 | 0.00 | 0.00 | 38 | 1018.9 |
| 20260509005046 | 71 | 220 | 1.0 | 8.0 | 0.00 | 0.00 | 0.00 | 42 | 1018.9 |
| 20260509004551 | 72 | 171 | 1.0 | 9.0 | 0.00 | 0.00 | 0.00 | 42 | 1019.1 |
| 20260509004044 | 72 | 234 | 3.0 | 9.0 | 0.00 | 0.00 | 0.00 | 41 | 1019.1 |
| 20260509003548 | 73 | 227 | 2.0 | 9.0 | 0.00 | 0.00 | 0.00 | 40 | 1019.1 |
| 20260509003051 | 73 | 225 | 1.0 | 9.0 | 0.00 | 0.00 | 0.00 | 41 | 1019.1 |
| 20260509002544 | 73 | 153 | 2.0 | 7.0 | 0.00 | 0.00 | 0.00 | 40 | 1019.2 |
| 20260509002047 | 74 | 175 | 2.0 | 7.0 | 0.00 | 0.00 | 0.00 | 39 | 1019.1 |
| 20260509001551 | 74 | 0 | 0.0 | 10.0 | 0.00 | 0.00 | 0.00 | 42 | 1019.2 |
| 20260509001048 | 74 | 0 | 2.0 | 10.0 | 0.00 | 0.00 | 0.00 | 39 | 1019.1 |
| 20260509000547 | 74 | 144 | 1.0 | 8.0 | 0.00 | 0.00 | 0.00 | 39 | 1019.2 |
| 20260509000051 | 74 | 148 | 2.0 | 10.0 | 0.00 | 0.00 | 0.00 | 37 | 1019.3 |
| 20260508235547 | 74 | 271 | 3.0 | 10.0 | 0.00 | 0.00 | 0.00 | 41 | 1019.4 |
| 20260508235045 | 74 | 112 | 1.0 | 7.0 | 0.00 | 0.00 | 0.00 | 41 | 1019.4 |
| 20260508234555 | 75 | 150 | 3.0 | 10.0 | 0.00 | 0.00 | 0.00 | 41 | 1019.4 |
| 20260508234045 | 75 | 165 | 2.0 | 10.0 | 0.00 | 0.00 | 0.00 | 39 | 1019.4 |
| 20260508233544 | 75 | 234 | 1.0 | 7.0 | 0.00 | 0.00 | 0.00 | 36 | 1019.3 |
| 20260508233102 | 75 | 109 | 2.0 | 11.0 | 0.00 | 0.00 | 0.00 | 37 | 1019.3 |
| 20260508232546 | 75 | 149 | 3.0 | 11.0 | 0.00 | 0.00 | 0.00 | 41 | 1019.4 |
| 20260508232044 | 75 | 180 | 3.0 | 9.0 | 0.00 | 0.00 | 0.00 | 40 | 1019.5 |
| 20260508231626 | 75 | 231 | 4.0 | 9.0 | 0.00 | 0.00 | 0.00 | 39 | 1019.6 |
| 20260508231048 | 76 | 186 | 2.0 | 7.0 | 0.00 | 0.00 | 0.00 | 41 | 1019.6 |
| 20260508230546 | 76 | 329 | 0.0 | 14.0 | 0.00 | 0.00 | 0.00 | 41 | 1019.6 |
| 20260508230059 | 76 | 254 | 4.0 | 14.0 | 0.00 | 0.00 | 0.00 | 40 | 1019.6 |
| 20260508225547 | 76 | 189 | 3.0 | 11.0 | 0.00 | 0.00 | 0.00 | 40 | 1019.7 |
| 20260508225047 | 76 | 110 | 2.0 | 11.0 | 0.00 | 0.00 | 0.00 | 43 | 1019.6 |
| 20260508224550 | 76 | 138 | 2.0 | 11.0 | 0.00 | 0.00 | 0.00 | 41 | 1019.7 |
| 20260508224047 | 76 | 132 | 3.0 | 10.0 | 0.00 | 0.00 | 0.00 | 42 | 1019.9 |
| 20260508223547 | 76 | 129 | 1.0 | 7.0 | 0.00 | 0.00 | 0.00 | 41 | 1019.9 |
| 20260508223052 | 76 | 202 | 3.0 | 10.0 | 0.00 | 0.00 | 0.00 | 39 | 1020.0 |
| 20260508222547 | 77 | 61 | 3.0 | 10.0 | 0.00 | 0.00 | 0.00 | 38 | 1020.0 |
| 20260508222048 | 76 | 308 | 4.0 | 10.0 | 0.00 | 0.00 | 0.00 | 38 | 1020.0 |
| 20260508221551 | 77 | 259 | 2.0 | 8.0 | 0.00 | 0.00 | 0.00 | 38 | 1020.1 |
| 20260508221048 | 77 | 155 | 2.0 | 9.0 | 0.00 | 0.00 | 0.00 | 40 | 1020.1 |
| 20260508220548 | 77 | 61 | 3.0 | 13.0 | 0.00 | 0.00 | 0.00 | 36 | 1020.0 |
| 20260508220057 | 76 | 140 | 3.0 | 13.0 | 0.00 | 0.00 | 0.00 | 39 | 1020.1 |
| 20260508215548 | 77 | 0 | 5.0 | 12.0 | 0.00 | 0.00 | 0.00 | 36 | 1020.2 |
| 20260508215048 | 77 | 99 | 1.0 | 10.0 | 0.00 | 0.00 | 0.00 | 37 | 1020.0 |
| 20260508214626 | 77 | 182 | 3.0 | 9.0 | 0.00 | 0.00 | 0.00 | 38 | 1020.3 |
| 20260508214050 | 78 | 219 | 3.0 | 9.0 | 0.00 | 0.00 | 0.00 | 37 | 1020.2 |
| 20260508213549 | 78 | 174 | 1.0 | 9.0 | 0.00 | 0.00 | 0.00 | 39 | 1020.3 |
| 20260508213052 | 77 | 131 | 2.0 | 10.0 | 0.00 | 0.00 | 0.00 | 41 | 1020.3 |
| 20260508212548 | 77 | 150 | 3.0 | 10.0 | 0.00 | 0.00 | 0.00 | 38 | 1020.3 |
| 20260508212048 | 77 | 143 | 1.0 | 6.0 | 0.00 | 0.00 | 0.00 | 40 | 1020.3 |
| 20260508211550 | 77 | 149 | 2.0 | 10.0 | 0.00 | 0.00 | 0.00 | 39 | 1020.3 |
| 20260508211048 | 77 | 122 | 3.0 | 10.0 | 0.00 | 0.00 | 0.00 | 38 | 1020.3 |
| 20260508210548 | 77 | 157 | 2.0 | 13.0 | 0.00 | 0.00 | 0.00 | 40 | 1020.3 |
| 20260508210055 | 77 | 184 | 4.0 | 13.0 | 0.00 | 0.00 | 0.00 | 38 | 1020.4 |
| 20260508205548 | 77 | 163 | 3.0 | 7.0 | 0.00 | 0.00 | 0.00 | 40 | 1020.3 |
| 20260508205048 | 77 | 147 | 1.0 | 10.0 | 0.00 | 0.00 | 0.00 | 42 | 1020.3 |
| 20260508204556 | 77 | 175 | 4.0 | 10.0 | 0.00 | 0.00 | 0.00 | 39 | 1020.4 |
| 20260508204047 | 77 | 130 | 2.0 | 7.0 | 0.00 | 0.00 | 0.00 | 39 | 1020.3 |
| 20260508203547 | 77 | 43 | 2.0 | 9.0 | 0.00 | 0.00 | 0.00 | 38 | 1020.2 |
| 20260508203110 | 77 | 282 | 2.0 | 9.0 | 0.00 | 0.00 | 0.00 | 38 | 1020.3 |
| 20260508202547 | 77 | 209 | 3.0 | 10.0 | 0.00 | 0.00 | 0.00 | 36 | 1020.3 |
| 20260508202047 | 76 | 155 | 3.0 | 12.0 | 0.00 | 0.00 | 0.00 | 38 | 1020.3 |
| 20260508201550 | 76 | 153 | 4.0 | 12.0 | 0.00 | 0.00 | 0.00 | 36 | 1020.4 |
| 20260508201048 | 77 | 134 | 3.0 | 7.0 | 0.00 | 0.00 | 0.00 | 36 | 1020.3 |
| 20260508200548 | 76 | 207 | 2.0 | 11.0 | 0.00 | 0.00 | 0.00 | 39 | 1020.2 |
| 20260508200049 | 76 | 0 | 2.0 | 11.0 | 0.00 | 0.00 | 0.00 | 38 | 1020.4 |
| 20260508195547 | 76 | 204 | 4.0 | 12.0 | 0.00 | 0.00 | 0.00 | 37 | 1020.4 |
| 20260508195047 | 76 | 275 | 4.0 | 12.0 | 0.00 | 0.00 | 0.00 | 36 | 1020.4 |
| 20260508194555 | 77 | 267 | 3.0 | 7.0 | 0.00 | 0.00 | 0.00 | 38 | 1020.6 |
| 20260508194046 | 77 | 126 | 2.0 | 7.0 | 0.00 | 0.00 | 0.00 | 36 | 1020.5 |
| 20260508193547 | 76 | 92 | 2.0 | 8.0 | 0.00 | 0.00 | 0.00 | 36 | 1020.6 |
| 20260508193119 | 76 | 95 | 1.0 | 9.0 | 0.00 | 0.00 | 0.00 | 38 | 1020.7 |
| 20260508192547 | 76 | 134 | 3.0 | 9.0 | 0.00 | 0.00 | 0.00 | 40 | 1020.7 |
| 20260508192049 | 76 | 190 | 2.0 | 10.0 | 0.00 | 0.00 | 0.00 | 40 | 1020.8 |
| 20260508191602 | 76 | 148 | 1.0 | 10.0 | 0.00 | 0.00 | 0.00 | 41 | 1020.8 |
| 20260508191048 | 76 | 170 | 2.0 | 11.0 | 0.00 | 0.00 | 0.00 | 44 | 1020.9 |
| 20260508190548 | 76 | 157 | 3.0 | 11.0 | 0.00 | 0.00 | 0.00 | 43 | 1020.8 |
| 20260508190056 | 76 | 119 | 1.0 | 11.0 | 0.00 | 0.00 | 0.00 | 45 | 1020.8 |
| 20260508185548 | 75 | 132 | 4.0 | 11.0 | 0.00 | 0.00 | 0.00 | 43 | 1020.8 |
| 20260508185047 | 75 | 114 | 4.0 | 9.0 | 0.00 | 0.00 | 0.00 | 46 | 1020.8 |
| 20260508184553 | 76 | 156 | 3.0 | 8.0 | 0.00 | 0.00 | 0.00 | 48 | 1020.8 |
| 20260508184047 | 76 | 193 | 2.0 | 9.0 | 0.00 | 0.00 | 0.00 | 47 | 1020.9 |
| 20260508183547 | 76 | 121 | 3.0 | 9.0 | 0.00 | 0.00 | 0.00 | 45 | 1020.8 |
| 20260508183052 | 76 | 179 | 2.0 | 7.0 | 0.00 | 0.00 | 0.00 | 45 | 1020.8 |
| 20260508182549 | 75 | 123 | 2.0 | 7.0 | 0.00 | 0.00 | 0.00 | 44 | 1020.8 |
| 20260508182046 | 75 | 144 | 2.0 | 7.0 | 0.00 | 0.00 | 0.00 | 46 | 1020.8 |
| 20260508181556 | 75 | 144 | 1.0 | 7.0 | 0.00 | 0.00 | 0.00 | 48 | 1020.8 |